Change the Weather History Date:

Tuesday, February 25, 2014

  Actual Average Record
Temperature  
Mean Temperature -9 °F 16 °F  
Max Temperature -2 °F 25 °F 65 °F (1958)
Min Temperature -17 °F 6 °F -33 °F (1950)
Degree Days  
Heating Degree Days 74 49  
Month to date heating degree days 1580 1338  
Since 1 July heating degree days 7672 7004  
Cooling Degree Days 0 0  
Month to date cooling degree days 0 0  
Year to date cooling degree days 0 0  
Moisture  
Dew Point -16 °F    
Average Humidity 66    
Maximum Humidity 75    
Minimum Humidity 56    
Precipitation  
Precipitation 0.00 in 0.02 in 0.87 in (2000)
Month to date precipitation 0.55 0.44  
Year to date precipitation 1.24 0.99  
Snow  
Snow 0.00 in 0.30 in - ()
Month to date snowfall 5.4 5.8  
Since 1 July snowfall 45.7 36.4  
Snow Depth 11.00 in    
Sea Level Pressure  
Sea Level Pressure 30.41 in    
Wind  
Wind Speed 13 mph (WNW)    
Max Wind Speed 26 mph    
Max Gust Speed 32 mph    
Visibility 10 miles    
Events      
T = Trace of Precipitation, MM = Missing Value Source: NWS Daily Summary

Daily Weather History Graph

Daily Weather History Graph

Search for Another Location

Airport or City:

Trip Planner

Search our weather history database for the weather conditions in past years. The results will help you decide how hot, cold, wet, or windy it might be!

Date:

Astronomy

Feb. 25, 2014 Rise Set
Actual Time 7:17 AM CST 6:07 PM CST
Civil Twilight 6:45 AM CST 6:38 PM CST
Nautical Twilight 6:09 AM CST 7:14 PM CST
Astronomical Twilight 5:34 AM CST 7:50 PM CST
Moon 4:25 AM CST (2/25) 2:02 PM CST (2/25)
Length of Visible Light 11h 52m
Length of Day
10h 50m
Waning Crescent, 18% of the Moon is Illuminated
Feb 25
Waning Crescent
Mar 1
New
Mar 8
First Quarter
Mar 16
Full
Mar 23
Last Quarter

Hourly Weather History & Observations

Time (CST) Temp. Windchill Dew Point Humidity Pressure Visibility Wind Dir Wind Speed Gust Speed Precip Events Conditions
12:53 AM -9.0 °F -27.4 °F -17.0 °F 68% 30.36 in - West 10.4 mph - N/A   Clear
1:53 AM -9.9 °F -29.6 °F -18.0 °F 68% 30.35 in - WNW 11.5 mph - N/A   Clear
2:53 AM -11.0 °F -28.8 °F -18.0 °F 71% 30.35 in - West 9.2 mph - N/A   Clear
3:53 AM -11.0 °F -29.9 °F -18.0 °F 71% 30.33 in - WNW 10.4 mph - N/A   Clear
4:53 AM -13.0 °F -31.3 °F -20.0 °F 71% 30.33 in - WNW 9.2 mph - N/A   Clear
5:53 AM -15.0 °F -29.3 °F -20.9 °F 75% 30.33 in 10.0 mi WNW 5.8 mph - N/A   Clear
6:53 AM -11.9 °F -32.0 °F -18.9 °F 71% 30.35 in 10.0 mi NW 11.5 mph - N/A   Partly Cloudy
7:53 AM -13.0 °F -33.4 °F -20.0 °F 71% 30.38 in 10.0 mi NW 11.5 mph - N/A   Partly Cloudy
8:53 AM -9.9 °F -32.1 °F -18.0 °F 68% 30.40 in 10.0 mi NW 15.0 mph - N/A   Partly Cloudy
9:53 AM -7.1 °F -31.0 °F -15.0 °F 68% 30.43 in 10.0 mi NNW 19.6 mph - N/A   Clear
10:53 AM -5.1 °F -25.9 °F -11.9 °F 72% 30.46 in 10.0 mi NNW 15.0 mph - N/A   Clear
11:53 AM -2.9 °F -27.2 °F -11.0 °F 68% 30.47 in 10.0 mi North 23.0 mph - N/A   Partly Cloudy
12:53 PM -4.0 °F -28.6 °F -11.9 °F 69% 30.49 in 10.0 mi North 23.0 mph - N/A   Scattered Clouds
1:53 PM -2.9 °F -25.6 °F -11.9 °F 65% 30.49 in 10.0 mi NNW 19.6 mph - N/A   Scattered Clouds
2:53 PM -2.0 °F -23.3 °F -11.9 °F 63% 30.49 in 10.0 mi NW 17.3 mph - N/A   Scattered Clouds
3:53 PM -2.0 °F -23.9 °F -13.0 °F 60% 30.49 in 10.0 mi NW 18.4 mph - N/A   Partly Cloudy
4:53 PM -2.9 °F -22.4 °F -14.1 °F 59% 30.48 in 10.0 mi NW 13.8 mph - N/A   Partly Cloudy
5:53 PM -5.1 °F -22.5 °F -14.1 °F 65% 30.47 in 10.0 mi WNW 10.4 mph - N/A   Clear
6:53 PM -9.0 °F -25.2 °F -17.0 °F 68% 30.47 in 10.0 mi WNW 8.1 mph - N/A   Clear
7:53 PM -11.9 °F -28.7 °F -18.9 °F 71% 30.44 in 10.0 mi West 8.1 mph - N/A   Clear
8:53 PM -11.0 °F -29.9 °F -18.9 °F 68% 30.42 in 10.0 mi West 10.4 mph - N/A   Clear
9:53 PM -11.0 °F -29.9 °F -18.0 °F 71% 30.39 in 10.0 mi WSW 10.4 mph - N/A   Clear
10:53 PM -9.9 °F -28.6 °F -17.0 °F 71% 30.35 in 10.0 mi West 10.4 mph - N/A   Partly Cloudy
11:53 PM -9.9 °F -29.6 °F -17.0 °F 71% 30.29 in - WSW 11.5 mph - N/A   Clear